Change the Weather History Date:

Monday, October 8, 2012

  Actual Average Record
Temperature  
Mean Temperature 44 °F 47 °F  
Max Temperature 51 °F 59 °F 87 °F (1943)
Min Temperature 36 °F 35 °F 18 °F (2000)
Degree Days  
Heating Degree Days 21 18  
Month to date heating degree days 157 133  
Since 1 July heating degree days 438 484  
Cooling Degree Days 0 0  
Month to date cooling degree days 0 0  
Year to date cooling degree days 572 378  
Moisture  
Dew Point 38 °F    
Average Humidity 82    
Maximum Humidity 93    
Minimum Humidity 71    
Precipitation  
Precipitation 0.04 in 0.06 in 1.72 in (1959)
Month to date precipitation 0.57 0.57  
Year to date precipitation 14.35 17.85  
Snow  
Snow 0.00 in 0.10 in 1.40 in (1985)
Month to date snowfall 2.7 0.2  
Since 1 July snowfall 2.7 0.2  
Since 1 September snowfall 2.7 0.2  
Snow Depth 0.00 in    
Sea Level Pressure  
Sea Level Pressure 29.57 in    
Wind  
Wind Speed 8 mph (WSW)    
Max Wind Speed 20 mph    
Max Gust Speed 26 mph    
Visibility 10 miles    
Events Rain    
T = Trace of Precipitation, MM = Missing Value Source: NWS Daily Summary

Daily Weather History Graph

Daily Weather History Graph

Search for Another Location

Airport or City:

Trip Planner

Search our weather history database for the weather conditions in past years. The results will help you decide how hot, cold, wet, or windy it might be!

Date:

Astronomy

Oct. 08, 2012 Rise Set
Actual Time 7:38 AM CDT 6:52 PM CDT
Civil Twilight 7:07 AM CDT 7:23 PM CDT
Nautical Twilight 6:31 AM CDT 7:59 PM CDT
Astronomical Twilight 5:55 AM CDT 8:35 PM CDT
Moon No Moon Rise 3:10 PM CDT (10/8)
Length of Visible Light 12h 16m
Length of Day
11h 14m
Last Quarter, 46% of the Moon is Illuminated
Oct 8
Last Quarter
Oct 15
New
Oct 21
First Quarter
Oct 29
Full
Nov 6
Last Quarter

Hourly Weather History & Observations

Time (CDT) Temp. Windchill Dew Point Humidity Pressure Visibility Wind Dir Wind Speed Gust Speed Precip Events Conditions
12:53 AM 35.1 °F - 32.0 °F 89% 29.71 in 10.0 mi Calm Calm - N/A   Mostly Cloudy
1:53 AM 37.0 °F 34.5 °F 34.0 °F 89% 29.69 in 10.0 mi South 3.5 mph - N/A   Overcast
2:53 AM 37.9 °F 32.7 °F 34.0 °F 86% 29.66 in 10.0 mi South 6.9 mph - N/A   Overcast
3:53 AM 37.9 °F 35.5 °F 34.0 °F 86% 29.62 in 10.0 mi SSE 3.5 mph - N/A   Mostly Cloudy
4:53 AM 39.9 °F 36.7 °F 34.0 °F 79% 29.60 in 10.0 mi SSE 4.6 mph - N/A   Overcast
5:53 AM 39.9 °F 35.1 °F 34.0 °F 79% 29.58 in 10.0 mi SSE 6.9 mph - N/A   Overcast
6:53 AM 39.9 °F 35.1 °F 35.1 °F 83% 29.56 in 10.0 mi SE 6.9 mph - N/A   Overcast
7:53 AM 39.0 °F 34.0 °F 36.0 °F 89% 29.53 in 10.0 mi SSE 6.9 mph - 0.00 in Rain Light Rain
8:53 AM 39.9 °F 36.7 °F 37.0 °F 89% 29.52 in 10.0 mi SE 4.6 mph - 0.00 in Rain Light Rain
9:53 AM 41.0 °F 39.0 °F 39.0 °F 93% 29.51 in 9.0 mi SSE 3.5 mph - 0.03 in Rain Light Rain
10:14 AM 41.0 °F 38.0 °F 39.2 °F 93% 29.48 in 10.0 mi SSE 4.6 mph - 0.00 in   Overcast
10:53 AM 42.1 °F 40.2 °F 39.9 °F 92% 29.49 in 10.0 mi SSE 3.5 mph - 0.00 in   Overcast
11:41 AM 44.6 °F 42.2 °F 42.8 °F 93% 29.47 in 10.0 mi WNW 4.6 mph - N/A   Overcast
11:53 AM 45.0 °F 40.6 °F 42.1 °F 90% 29.49 in 10.0 mi NNW 8.1 mph - N/A   Overcast
12:05 PM 46.4 °F 42.4 °F 42.8 °F 87% 29.47 in 10.0 mi NW 8.1 mph - N/A   Overcast
12:53 PM 44.1 °F 37.1 °F 41.0 °F 89% 29.53 in 8.0 mi NW 15.0 mph - N/A   Overcast
1:53 PM 44.1 °F 37.7 °F 42.1 °F 93% 29.55 in 9.0 mi NW 12.7 mph - N/A   Overcast
2:38 PM 48.2 °F - 42.8 °F 82% 29.53 in 10.0 mi NW 12.7 mph - N/A   Overcast
2:53 PM 46.9 °F - 42.1 °F 83% 29.56 in 10.0 mi NW 11.5 mph - N/A   Overcast
3:53 PM 48.9 °F - 42.1 °F 77% 29.57 in 9.0 mi WNW 11.5 mph - 0.00 in Rain Light Rain
4:11 PM 48.2 °F - 42.8 °F 82% 29.55 in 10.0 mi West 8.1 mph - 0.01 in Rain Light Rain
4:53 PM 51.1 °F - 43.0 °F 74% 29.57 in 10.0 mi WNW 11.5 mph - 0.01 in   Mostly Cloudy
5:53 PM 48.9 °F - 39.9 °F 71% 29.59 in 10.0 mi WNW 18.4 mph 24.2 mph 0.00 in   Mostly Cloudy
6:53 PM 46.0 °F 41.4 °F 39.9 °F 79% 29.61 in 10.0 mi West 9.2 mph - N/A   Mostly Cloudy
7:53 PM 46.0 °F 41.0 °F 39.0 °F 76% 29.62 in 10.0 mi West 10.4 mph - N/A   Mostly Cloudy
8:53 PM 44.6 °F 40.7 °F 37.4 °F 76% 29.61 in 10.0 mi West 6.9 mph - N/A   Overcast
9:53 PM 41.0 °F 36.4 °F 37.0 °F 86% 29.63 in 10.0 mi WSW 6.9 mph - N/A   Scattered Clouds
10:53 PM 41.0 °F 35.8 °F 34.0 °F 76% 29.63 in 10.0 mi West 8.1 mph - N/A   Scattered Clouds
11:53 PM 39.2 °F 33.6 °F 33.8 °F 81% 29.61 in 10.0 mi West 8.1 mph - N/A   Clear